| time (UTC) | temp F | wind direction | speed knots | gust knots | rain 1hr in | rain 24hr in | rain mn in | humidity % | barometer mb |
| 20260507093734 | 40 | 108 | 2.6 | 3.5 | 0.00 | 0.00 | 0.00 | 75 | 1014.5 |
| 20260507093233 | 40 | 140 | 4.3 | 4.3 | 0.00 | 0.00 | 0.00 | 75 | 1014.5 |
| 20260507092730 | 40 | 87 | 1.7 | 3.5 | 0.00 | 0.00 | 0.00 | 75 | 1014.1 |
| 20260507092226 | 39 | 100 | 1.7 | 2.6 | 0.00 | 0.00 | 0.00 | 76 | 1014.4 |
| 20260507091722 | 39 | 113 | 1.7 | 3.5 | 0.00 | 0.00 | 0.00 | 76 | 1014.3 |
| 20260507091219 | 39 | 105 | 3.5 | 3.5 | 0.00 | 0.00 | 0.00 | 77 | 1014.4 |
| 20260507090719 | 38 | 81 | 2.6 | 2.6 | 0.00 | 0.00 | 0.00 | 80 | 1014.3 |
| 20260507090216 | 38 | 109 | 1.7 | 2.6 | 0.00 | 0.00 | 0.00 | 81 | 1014.2 |
| 20260507085714 | 37 | 99 | 2.6 | 3.5 | 0.00 | 0.00 | 0.00 | 85 | 1014.5 |
| 20260507085210 | 37 | 95 | 1.7 | 2.6 | 0.00 | 0.00 | 0.00 | 85 | 1014.5 |
| 20260507084708 | 37 | 102 | 1.7 | 2.6 | 0.00 | 0.00 | 0.00 | 86 | 1014.5 |
| 20260507084204 | 36 | 110 | 1.7 | 2.6 | 0.00 | 0.00 | 0.00 | 87 | 1014.5 |
| 20260507083701 | 36 | 109 | 2.6 | 2.6 | 0.00 | 0.00 | 0.00 | 87 | 1014.2 |
| 20260507083158 | 36 | 109 | 1.7 | 1.7 | 0.00 | 0.00 | 0.00 | 86 | 1014.5 |
| 20260507082654 | 36 | 106 | 1.7 | 2.6 | 0.00 | 0.00 | 0.00 | 86 | 1014.4 |
| 20260507082150 | 37 | 101 | 1.7 | 1.7 | 0.00 | 0.00 | 0.00 | 85 | 1014.5 |
| 20260507081647 | 37 | 104 | 1.7 | 2.6 | 0.00 | 0.00 | 0.00 | 83 | 1014.4 |
| 20260507081143 | 37 | 111 | 1.7 | 1.7 | 0.00 | 0.00 | 0.00 | 83 | 1014.4 |
| 20260507080640 | 37 | 95 | 1.7 | 1.7 | 0.00 | 0.00 | 0.00 | 83 | 1014.6 |
| 20260507080136 | 38 | 85 | 1.7 | 1.7 | 0.00 | 0.00 | 0.00 | 83 | 1014.7 |
| 20260507075631 | 38 | 108 | 1.7 | 2.6 | 0.00 | 0.00 | 0.00 | 82 | 1014.5 |
| 20260507075127 | 38 | 107 | 1.7 | 2.6 | 0.00 | 0.00 | 0.00 | 82 | 1014.5 |
| 20260507074624 | 38 | 109 | 1.7 | 2.6 | 0.00 | 0.00 | 0.00 | 84 | 1014.5 |
| 20260507074123 | 38 | 102 | 1.7 | 2.6 | 0.00 | 0.00 | 0.00 | 84 | 1014.5 |
| 20260507073618 | 37 | 91 | 1.7 | 2.6 | 0.00 | 0.00 | 0.00 | 85 | 1014.5 |
| 20260507073115 | 37 | 96 | 1.7 | 1.7 | 0.00 | 0.00 | 0.00 | 86 | 1014.8 |
| 20260507072613 | 37 | 112 | 1.7 | 2.6 | 0.00 | 0.00 | 0.00 | 87 | 1014.5 |
| 20260507072110 | 37 | 115 | 2.6 | 2.6 | 0.00 | 0.00 | 0.00 | 88 | 1014.4 |
| 20260507071607 | 37 | 111 | 1.7 | 1.7 | 0.00 | 0.00 | 0.00 | 88 | 1014.6 |
| 20260507071103 | 37 | 87 | 1.7 | 1.7 | 0.00 | 0.00 | 0.00 | 88 | 1014.6 |
| 20260507070601 | 37 | 93 | 1.7 | 2.6 | 0.00 | 0.00 | 0.00 | 88 | 1014.7 |
| 20260507070058 | 38 | 80 | 1.7 | 2.6 | 0.00 | 0.00 | 0.00 | 88 | 1014.7 |
| 20260507065554 | 38 | 105 | 1.7 | 1.7 | 0.00 | 0.00 | 0.00 | 86 | 1014.7 |
| 20260507065051 | 38 | 105 | 1.7 | 2.6 | 0.00 | 0.00 | 0.00 | 86 | 1014.8 |
| 20260507064549 | 38 | 101 | 1.7 | 1.7 | 0.00 | 0.00 | 0.00 | 86 | 1014.7 |
| 20260507064048 | 39 | 96 | 1.7 | 2.6 | 0.00 | 0.00 | 0.00 | 85 | 1014.7 |
| 20260507063544 | 39 | 110 | 1.7 | 1.7 | 0.00 | 0.00 | 0.00 | 83 | 1014.7 |
| 20260507063041 | 39 | 107 | 1.7 | 1.7 | 0.00 | 0.00 | 0.00 | 83 | 1014.7 |
| 20260507062538 | 39 | 108 | 1.7 | 1.7 | 0.00 | 0.00 | 0.00 | 85 | 1014.8 |
| 20260507062036 | 39 | 95 | 1.7 | 1.7 | 0.00 | 0.00 | 0.00 | 85 | 1014.8 |
| 20260507061533 | 39 | 85 | 1.7 | 2.6 | 0.00 | 0.00 | 0.00 | 85 | 1014.6 |
| 20260507061031 | 39 | 103 | 1.7 | 1.7 | 0.00 | 0.00 | 0.00 | 85 | 1014.8 |
| 20260507060529 | 39 | 94 | 1.7 | 1.7 | 0.00 | 0.00 | 0.00 | 85 | 1015.0 |
| 20260507060026 | 40 | 100 | 1.7 | 2.6 | 0.00 | 0.00 | 0.00 | 83 | 1014.7 |
| 20260507055525 | 40 | 87 | 1.7 | 1.7 | 0.00 | 0.00 | 0.00 | 83 | 1014.9 |
| 20260507055022 | 40 | 108 | 1.7 | 1.7 | 0.00 | 0.00 | 0.00 | 80 | 1014.8 |
| 20260507054518 | 41 | 116 | 2.6 | 2.6 | 0.00 | 0.00 | 0.00 | 81 | 1014.7 |
| 20260507054015 | 41 | 105 | 1.7 | 1.7 | 0.00 | 0.00 | 0.00 | 80 | 1014.6 |
| 20260507053513 | 40 | 74 | 1.7 | 3.5 | 0.00 | 0.00 | 0.00 | 82 | 1014.7 |
| 20260507053012 | 40 | 76 | 1.7 | 2.6 | 0.00 | 0.00 | 0.00 | 85 | 1014.7 |
| 20260507052509 | 40 | 113 | 2.6 | 2.6 | 0.00 | 0.00 | 0.00 | 84 | 1014.8 |
| 20260507052006 | 40 | 106 | 1.7 | 2.6 | 0.00 | 0.00 | 0.00 | 84 | 1014.8 |
| 20260507051503 | 40 | 98 | 1.7 | 1.7 | 0.00 | 0.00 | 0.00 | 84 | 1014.8 |
| 20260507051000 | 40 | 113 | 1.7 | 2.6 | 0.00 | 0.00 | 0.00 | 84 | 1014.7 |
| 20260507050456 | 40 | 105 | 1.7 | 1.7 | 0.00 | 0.00 | 0.00 | 85 | 1014.7 |
| 20260507045953 | 40 | 82 | 1.7 | 1.7 | 0.00 | 0.00 | 0.00 | 84 | 1014.7 |
| 20260507045450 | 41 | 99 | 1.7 | 1.7 | 0.00 | 0.00 | 0.00 | 83 | 1014.8 |
| 20260507044947 | 41 | 125 | 1.7 | 2.6 | 0.00 | 0.00 | 0.00 | 82 | 1014.4 |
| 20260507044444 | 41 | 94 | 1.7 | 1.7 | 0.00 | 0.00 | 0.00 | 81 | 1014.6 |
| 20260507043940 | 41 | 102 | 1.7 | 1.7 | 0.00 | 0.00 | 0.00 | 81 | 1014.5 |
| 20260507043436 | 41 | 112 | 1.7 | 2.6 | 0.00 | 0.00 | 0.00 | 82 | 1014.5 |
| 20260507042932 | 41 | 106 | 1.7 | 2.6 | 0.00 | 0.00 | 0.00 | 83 | 1014.4 |
| 20260507042429 | 41 | 109 | 1.7 | 2.6 | 0.00 | 0.00 | 0.00 | 85 | 1014.5 |
| 20260507041925 | 41 | 111 | 2.6 | 2.6 | 0.00 | 0.00 | 0.00 | 88 | 1014.6 |
| 20260507041422 | 41 | 99 | 1.7 | 1.7 | 0.00 | 0.00 | 0.00 | 88 | 1014.5 |
| 20260507040920 | 41 | 105 | 1.7 | 2.6 | 0.00 | 0.00 | 0.00 | 88 | 1014.5 |
| 20260507040415 | 41 | 80 | 1.7 | 2.6 | 0.00 | 0.00 | 0.00 | 88 | 1014.4 |
| 20260507035911 | 41 | 108 | 1.7 | 2.6 | 0.00 | 0.01 | 0.01 | 87 | 1014.5 |
| 20260507035408 | 41 | 106 | 1.7 | 1.7 | 0.00 | 0.01 | 0.01 | 87 | 1014.6 |
| 20260507034904 | 41 | 117 | 1.7 | 1.7 | 0.00 | 0.01 | 0.01 | 87 | 1014.3 |
| 20260507034401 | 41 | 115 | 1.7 | 1.7 | 0.00 | 0.01 | 0.01 | 88 | 1014.5 |
| 20260507033859 | 41 | 101 | 1.7 | 1.7 | 0.00 | 0.01 | 0.01 | 88 | 1014.4 |
| 20260507033358 | 42 | 110 | 1.7 | 1.7 | 0.00 | 0.01 | 0.01 | 87 | 1014.4 |
| 20260507032854 | 42 | 109 | 1.7 | 1.7 | 0.00 | 0.01 | 0.01 | 86 | 1014.3 |
| 20260507032351 | 42 | 108 | 1.7 | 1.7 | 0.00 | 0.01 | 0.01 | 85 | 1014.4 |
| 20260507031847 | 42 | 96 | 1.7 | 1.7 | 0.00 | 0.01 | 0.01 | 85 | 1014.4 |
| 20260507031344 | 43 | 112 | 1.7 | 1.7 | 0.00 | 0.01 | 0.01 | 82 | 1014.2 |
| 20260507030840 | 43 | 94 | 1.7 | 1.7 | 0.00 | 0.01 | 0.01 | 82 | 1014.3 |
| 20260507030338 | 44 | 92 | 1.7 | 1.7 | 0.00 | 0.01 | 0.01 | 83 | 1014.1 |
| 20260507025834 | 44 | 104 | 1.7 | 1.7 | 0.00 | 0.01 | 0.01 | 81 | 1014.2 |
| 20260507025332 | 45 | 99 | 1.7 | 1.7 | 0.00 | 0.01 | 0.01 | 80 | 1014.3 |
| 20260507024830 | 45 | 87 | 1.7 | 1.7 | 0.00 | 0.01 | 0.01 | 77 | 1014.3 |
| 20260507024327 | 46 | 92 | 1.7 | 1.7 | 0.00 | 0.01 | 0.01 | 75 | 1014.1 |
| 20260507023822 | 46 | 99 | 1.7 | 1.7 | 0.00 | 0.01 | 0.01 | 74 | 1014.2 |
| 20260507023319 | 47 | 106 | 1.7 | 1.7 | 0.00 | 0.01 | 0.01 | 71 | 1014.1 |
| 20260507022817 | 47 | 123 | 0.9 | 2.6 | 0.00 | 0.01 | 0.01 | 69 | 1014.3 |
| 20260507022313 | 47 | 88 | 1.7 | 1.7 | 0.00 | 0.01 | 0.01 | 70 | 1014.2 |
| 20260507021809 | 48 | 89 | 1.7 | 1.7 | 0.00 | 0.01 | 0.01 | 67 | 1014.1 |
| 20260507021305 | 48 | 106 | 1.7 | 1.7 | 0.00 | 0.01 | 0.01 | 68 | 1014.2 |
| 20260507020803 | 49 | 107 | 1.7 | 1.7 | 0.00 | 0.01 | 0.01 | 66 | 1014.0 |
| 20260507020259 | 49 | 113 | 1.7 | 1.7 | 0.00 | 0.01 | 0.01 | 66 | 1014.2 |
| 20260507015757 | 49 | 99 | 1.7 | 1.7 | 0.00 | 0.01 | 0.01 | 74 | 1014.2 |
| 20260507015254 | 49 | 108 | 1.7 | 1.7 | 0.00 | 0.01 | 0.01 | 70 | 1014.1 |
| 20260507014751 | 49 | 114 | 1.7 | 1.7 | 0.00 | 0.01 | 0.01 | 69 | 1014.2 |
| 20260507014247 | 49 | 107 | 1.7 | 1.7 | 0.00 | 0.01 | 0.01 | 69 | 1014.1 |
| 20260507013744 | 49 | 105 | 1.7 | 1.7 | 0.00 | 0.01 | 0.01 | 70 | 1013.9 |
| 20260507013241 | 49 | 105 | 1.7 | 1.7 | 0.00 | 0.01 | 0.01 | 69 | 1013.9 |
| 20260507012738 | 50 | 102 | 1.7 | 1.7 | 0.00 | 0.01 | 0.01 | 69 | 1013.9 |
| 20260507012234 | 50 | 106 | 1.7 | 1.7 | 0.00 | 0.01 | 0.01 | 69 | 1013.6 |
| 20260507011732 | 50 | 109 | 1.7 | 1.7 | 0.00 | 0.01 | 0.01 | 68 | 1013.7 |
| 20260507011228 | 50 | 96 | 1.7 | 2.6 | 0.00 | 0.01 | 0.01 | 63 | 1013.8 |
| 20260507010727 | 50 | 110 | 1.7 | 2.6 | 0.00 | 0.01 | 0.01 | 61 | 1013.8 |
| 20260507010224 | 50 | 117 | 1.7 | 1.7 | 0.00 | 0.01 | 0.01 | 60 | 1013.6 |
| 20260507005721 | 50 | 109 | 1.7 | 1.7 | 0.00 | 0.01 | 0.01 | 60 | 1013.6 |
| 20260507005217 | 51 | 92 | 1.7 | 2.6 | 0.00 | 0.01 | 0.01 | 62 | 1013.3 |
| 20260507004714 | 51 | 109 | 1.7 | 1.7 | 0.00 | 0.01 | 0.01 | 58 | 1013.3 |
| 20260507004212 | 51 | 115 | 1.7 | 2.6 | 0.00 | 0.01 | 0.01 | 58 | 1013.5 |
| 20260507003708 | 52 | 89 | 1.7 | 2.6 | 0.00 | 0.01 | 0.01 | 60 | 1013.2 |
| 20260507003203 | 52 | 111 | 1.7 | 1.7 | 0.00 | 0.01 | 0.01 | 59 | 1013.1 |
| 20260507002659 | 52 | 107 | 1.7 | 1.7 | 0.00 | 0.01 | 0.01 | 57 | 1013.1 |
| 20260507002156 | 53 | 96 | 1.7 | 1.7 | 0.00 | 0.01 | 0.01 | 57 | 1012.9 |
| 20260507001652 | 53 | 103 | 1.7 | 1.7 | 0.00 | 0.01 | 0.01 | 52 | 1013.3 |
| 20260507001150 | 53 | 105 | 1.7 | 2.6 | 0.00 | 0.01 | 0.01 | 51 | 1013.1 |
| 20260507000646 | 53 | 98 | 1.7 | 2.6 | 0.00 | 0.01 | 0.01 | 52 | 1013.1 |
| 20260507000142 | 54 | 116 | 1.7 | 3.5 | 0.00 | 0.01 | 0.01 | 50 | 1013.2 |
| 20260506235639 | 54 | 87 | 1.7 | 2.6 | 0.00 | 0.01 | 0.01 | 50 | 1013.2 |
| 20260506235139 | 55 | 106 | 1.7 | 2.6 | 0.00 | 0.01 | 0.01 | 47 | 1013.1 |
| 20260506234637 | 55 | 112 | 1.7 | 1.7 | 0.00 | 0.01 | 0.01 | 48 | 1013.1 |
| 20260506234134 | 55 | 103 | 2.6 | 5.2 | 0.00 | 0.01 | 0.01 | 46 | 1012.9 |
| 20260506233631 | 55 | 77 | 2.6 | 3.5 | 0.00 | 0.01 | 0.01 | 45 | 1013.3 |
| 20260506233128 | 55 | 104 | 2.6 | 4.3 | 0.00 | 0.01 | 0.01 | 48 | 1013.3 |
| 20260506232624 | 55 | 119 | 2.6 | 3.5 | 0.00 | 0.01 | 0.01 | 44 | 1013.2 |
| 20260506232119 | 56 | 114 | 2.6 | 3.5 | 0.00 | 0.01 | 0.01 | 46 | 1013.3 |
| 20260506231617 | 56 | 107 | 1.7 | 3.5 | 0.00 | 0.01 | 0.01 | 48 | 1013.3 |
| 20260506231115 | 56 | 73 | 2.6 | 3.5 | 0.00 | 0.01 | 0.01 | 44 | 1013.3 |
| 20260506230612 | 56 | 61 | 3.5 | 3.5 | 0.00 | 0.01 | 0.01 | 44 | 1013.1 |
| 20260506230109 | 56 | 87 | 2.6 | 2.6 | 0.00 | 0.01 | 0.01 | 48 | 1013.2 |
| 20260506225605 | 56 | 85 | 1.7 | 5.2 | 0.00 | 0.01 | 0.01 | 44 | 1013.2 |
| 20260506225101 | 56 | 95 | 2.6 | 3.5 | 0.00 | 0.01 | 0.01 | 44 | 1013.1 |
| 20260506224559 | 56 | 139 | 0.9 | 3.5 | 0.00 | 0.01 | 0.01 | 46 | 1012.9 |
| 20260506224055 | 57 | 91 | 2.6 | 3.5 | 0.00 | 0.01 | 0.01 | 45 | 1012.8 |
| 20260506223551 | 57 | 143 | 4.3 | 4.3 | 0.00 | 0.01 | 0.01 | 43 | 1013.3 |
| 20260506223047 | 57 | 93 | 1.7 | 3.5 | 0.00 | 0.01 | 0.01 | 43 | 1013.1 |
| 20260506222544 | 57 | 94 | 0.9 | 4.3 | 0.00 | 0.01 | 0.01 | 43 | 1013.2 |
| 20260506222041 | 57 | 108 | 1.7 | 3.5 | 0.00 | 0.01 | 0.01 | 41 | 1013.1 |
| 20260506221538 | 58 | 130 | 2.6 | 4.3 | 0.00 | 0.01 | 0.01 | 43 | 1013.1 |
| 20260506221036 | 58 | 107 | 2.6 | 3.5 | 0.00 | 0.01 | 0.01 | 45 | 1012.9 |
| 20260506220532 | 57 | 103 | 3.5 | 3.5 | 0.00 | 0.01 | 0.01 | 44 | 1012.9 |
| 20260506220028 | 57 | 130 | 5.2 | 8.7 | 0.00 | 0.01 | 0.01 | 41 | 1013.1 |
| 20260506215525 | 58 | 88 | 2.6 | 3.5 | 0.00 | 0.01 | 0.01 | 45 | 1012.8 |
| 20260506215020 | 58 | 126 | 5.2 | 5.2 | 0.00 | 0.01 | 0.01 | 43 | 1012.9 |
| 20260506214518 | 57 | 89 | 1.7 | 3.5 | 0.00 | 0.01 | 0.01 | 44 | 1013.2 |
| 20260506214015 | 57 | 57 | 2.6 | 4.3 | 0.00 | 0.01 | 0.01 | 43 | 1012.6 |
| 20260506213513 | 57 | 81 | 3.5 | 3.5 | 0.00 | 0.01 | 0.01 | 41 | 1012.7 |
| 20260506213010 | 57 | 129 | 4.3 | 4.3 | 0.00 | 0.01 | 0.01 | 42 | 1012.9 |
| 20260506212506 | 57 | 67 | 2.6 | 5.2 | 0.00 | 0.01 | 0.01 | 43 | 1013.1 |
| 20260506212001 | 58 | 156 | 2.6 | 7.0 | 0.00 | 0.01 | 0.01 | 42 | 1012.9 |
| 20260506211457 | 58 | 79 | 1.7 | 5.2 | 0.00 | 0.01 | 0.01 | 40 | 1013.1 |
| 20260506210954 | 59 | 72 | 3.5 | 7.0 | 0.00 | 0.01 | 0.01 | 41 | 1013.1 |
| 20260506210451 | 58 | 89 | 3.5 | 5.2 | 0.00 | 0.01 | 0.01 | 41 | 1012.9 |
| 20260506205948 | 58 | 94 | 2.6 | 5.2 | 0.00 | 0.01 | 0.01 | 41 | 1012.8 |
| 20260506205444 | 59 | 103 | 2.6 | 4.3 | 0.00 | 0.01 | 0.01 | 40 | 1012.9 |
| 20260506204940 | 59 | 11 | 2.6 | 3.5 | 0.00 | 0.01 | 0.01 | 38 | 1013.1 |
| 20260506204438 | 59 | 77 | 2.6 | 6.1 | 0.00 | 0.01 | 0.01 | 41 | 1013.2 |
| 20260506203935 | 59 | 68 | 2.6 | 5.2 | 0.00 | 0.01 | 0.01 | 41 | 1013.2 |
| 20260506203432 | 59 | 38 | 3.5 | 7.0 | 0.00 | 0.01 | 0.01 | 40 | 1013.2 |
| 20260506202929 | 59 | 87 | 3.5 | 5.2 | 0.00 | 0.01 | 0.01 | 46 | 1013.2 |
| 20260506202427 | 60 | 99 | 1.7 | 6.1 | 0.00 | 0.01 | 0.01 | 38 | 1013.1 |
| 20260506201923 | 59 | 73 | 3.5 | 6.1 | 0.00 | 0.01 | 0.01 | 38 | 1012.9 |
| 20260506201421 | 59 | 31 | 4.3 | 8.7 | 0.00 | 0.01 | 0.01 | 42 | 1013.2 |
| 20260506200917 | 59 | 73 | 3.5 | 5.2 | 0.00 | 0.01 | 0.01 | 43 | 1013.2 |
| 20260506200413 | 59 | 127 | 4.3 | 5.2 | 0.00 | 0.01 | 0.01 | 43 | 1013.1 |
| 20260506195910 | 59 | 65 | 1.7 | 5.2 | 0.00 | 0.01 | 0.01 | 42 | 1013.3 |
| 20260506195407 | 59 | 51 | 1.7 | 3.5 | 0.00 | 0.01 | 0.01 | 40 | 1013.2 |
| 20260506194903 | 58 | 97 | 1.7 | 2.6 | 0.00 | 0.01 | 0.01 | 44 | 1013.3 |
| 20260506194400 | 58 | 124 | 3.5 | 6.1 | 0.00 | 0.01 | 0.01 | 42 | 1013.4 |
| 20260506193857 | 59 | 124 | 3.5 | 5.2 | 0.00 | 0.01 | 0.01 | 41 | 1013.5 |
| 20260506193354 | 58 | 117 | 3.5 | 7.8 | 0.00 | 0.01 | 0.01 | 41 | 1013.4 |
| 20260506192850 | 58 | 93 | 2.6 | 4.3 | 0.00 | 0.01 | 0.01 | 41 | 1013.4 |
| 20260506192347 | 58 | 122 | 3.5 | 4.3 | 0.00 | 0.01 | 0.01 | 43 | 1013.4 |
| 20260506191845 | 57 | 106 | 3.5 | 5.2 | 0.00 | 0.01 | 0.01 | 45 | 1013.6 |
| 20260506191341 | 57 | 88 | 1.7 | 5.2 | 0.00 | 0.01 | 0.01 | 43 | 1013.5 |
| 20260506190838 | 57 | 71 | 2.6 | 4.3 | 0.00 | 0.01 | 0.01 | 44 | 1013.4 |
| 20260506190334 | 57 | 51 | 2.6 | 5.2 | 0.00 | 0.01 | 0.01 | 39 | 1013.4 |
| 20260506185831 | 57 | 59 | 2.6 | 4.3 | 0.00 | 0.01 | 0.01 | 46 | 1013.5 |
| 20260506185328 | 56 | 115 | 2.6 | 4.3 | 0.00 | 0.01 | 0.01 | 45 | 1013.4 |
| 20260506184825 | 56 | 78 | 1.7 | 3.5 | 0.00 | 0.01 | 0.01 | 43 | 1013.6 |
| 20260506184322 | 56 | 132 | 2.6 | 4.3 | 0.00 | 0.01 | 0.01 | 45 | 1013.4 |
| 20260506183820 | 56 | 128 | 2.6 | 5.2 | 0.00 | 0.01 | 0.01 | 43 | 1013.7 |
| 20260506183314 | 56 | 84 | 2.6 | 5.2 | 0.00 | 0.01 | 0.01 | 42 | 1013.3 |
| 20260506182812 | 56 | 121 | 1.7 | 3.5 | 0.00 | 0.01 | 0.01 | 42 | 1013.3 |
| 20260506182309 | 56 | 101 | 2.6 | 3.5 | 0.00 | 0.01 | 0.01 | 44 | 1013.5 |
| 20260506181807 | 56 | 93 | 2.6 | 4.3 | 0.00 | 0.01 | 0.01 | 45 | 1013.7 |
| 20260506181305 | 56 | 112 | 1.7 | 5.2 | 0.00 | 0.01 | 0.01 | 43 | 1013.7 |
| 20260506180802 | 55 | 99 | 1.7 | 2.6 | 0.00 | 0.01 | 0.01 | 46 | 1013.4 |
| 20260506180257 | 55 | 108 | 1.7 | 3.5 | 0.00 | 0.01 | 0.01 | 45 | 1013.7 |
| 20260506175754 | 56 | 66 | 2.6 | 4.3 | 0.00 | 0.01 | 0.01 | 44 | 1013.7 |
| 20260506175251 | 57 | 117 | 3.5 | 4.3 | 0.00 | 0.01 | 0.01 | 44 | 1013.7 |
| 20260506174748 | 57 | 81 | 2.6 | 4.3 | 0.00 | 0.01 | 0.01 | 44 | 1013.3 |
| 20260506174245 | 57 | 81 | 0.9 | 3.5 | 0.00 | 0.01 | 0.01 | 41 | 1013.3 |
| 20260506173743 | 57 | 96 | 4.3 | 5.2 | 0.00 | 0.01 | 0.01 | 43 | 1013.4 |
| 20260506173240 | 57 | 109 | 1.7 | 4.3 | 0.00 | 0.01 | 0.01 | 42 | 1013.3 |
| 20260506172736 | 57 | 92 | 3.5 | 4.3 | 0.00 | 0.01 | 0.01 | 44 | 1013.4 |
| 20260506172233 | 57 | 109 | 1.7 | 3.5 | 0.00 | 0.01 | 0.01 | 40 | 1013.6 |
| 20260506171731 | 57 | 82 | 3.5 | 7.8 | 0.00 | 0.01 | 0.01 | 45 | 1013.3 |
| 20260506171228 | 56 | 44 | 4.3 | 5.2 | 0.00 | 0.01 | 0.01 | 44 | 1013.3 |
| 20260506170725 | 57 | 14 | 1.7 | 5.2 | 0.00 | 0.01 | 0.01 | 41 | 1013.3 |
| 20260506170222 | 57 | 131 | 3.5 | 3.5 | 0.00 | 0.01 | 0.01 | 42 | 1013.4 |
| 20260506165720 | 57 | 86 | 3.5 | 5.2 | 0.00 | 0.01 | 0.01 | 45 | 1013.2 |
| 20260506165217 | 57 | 51 | 1.7 | 6.1 | 0.00 | 0.01 | 0.01 | 42 | 1013.2 |
| 20260506164714 | 57 | 72 | 3.5 | 3.5 | 0.00 | 0.01 | 0.01 | 43 | 1013.5 |
| 20260506164211 | 57 | 86 | 2.6 | 3.5 | 0.00 | 0.01 | 0.01 | 43 | 1013.3 |
| 20260506163707 | 56 | 50 | 2.6 | 4.3 | 0.00 | 0.01 | 0.01 | 43 | 1013.4 |
| 20260506163202 | 56 | 52 | 3.5 | 5.2 | 0.00 | 0.01 | 0.01 | 41 | 1013.3 |
| 20260506162659 | 56 | 136 | 2.6 | 3.5 | 0.00 | 0.01 | 0.01 | 42 | 1013.3 |
| 20260506162156 | 56 | 106 | 2.6 | 4.3 | 0.00 | 0.01 | 0.01 | 42 | 1013.5 |
| 20260506161653 | 57 | 94 | 1.7 | 3.5 | 0.00 | 0.01 | 0.01 | 43 | 1013.5 |
| 20260506161150 | 57 | 72 | 3.5 | 4.3 | 0.00 | 0.01 | 0.01 | 44 | 1013.3 |
| 20260506160648 | 57 | 51 | 1.7 | 4.3 | 0.00 | 0.01 | 0.01 | 41 | 1013.4 |
| 20260506160145 | 57 | 32 | 3.5 | 3.5 | 0.00 | 0.01 | 0.01 | 40 | 1013.4 |
| 20260506155643 | 57 | 88 | 2.6 | 7.8 | 0.00 | 0.01 | 0.01 | 41 | 1013.6 |
| 20260506155140 | 58 | 23 | 3.5 | 3.5 | 0.00 | 0.01 | 0.01 | 40 | 1013.6 |
| 20260506153236 | 59 | 86 | 1.7 | 4.3 | 0.00 | 0.01 | 0.01 | 35 | 1013.4 |
| 20260506152733 | 58 | 123 | 1.7 | 5.2 | 0.00 | 0.01 | 0.01 | 38 | 1013.5 |
| 20260506152230 | 59 | 63 | 1.7 | 5.2 | 0.00 | 0.01 | 0.01 | 40 | 1013.5 |
| 20260506151729 | 59 | 61 | 2.6 | 5.2 | 0.00 | 0.01 | 0.01 | 43 | 1013.4 |
| 20260506151225 | 57 | 44 | 3.5 | 6.1 | 0.00 | 0.01 | 0.01 | 41 | 1013.6 |
| 20260506150722 | 57 | 125 | 3.5 | 6.1 | 0.00 | 0.01 | 0.01 | 44 | 1013.2 |
| 20260506150219 | 57 | 133 | 0.9 | 3.5 | 0.00 | 0.01 | 0.01 | 41 | 1013.3 |
| 20260506145716 | 57 | 119 | 1.7 | 4.3 | 0.00 | 0.01 | 0.01 | 48 | 1013.1 |
| 20260506145213 | 58 | 56 | 2.6 | 3.5 | 0.00 | 0.01 | 0.01 | 44 | 1013.1 |
| 20260506144710 | 58 | 121 | 3.5 | 6.1 | 0.00 | 0.01 | 0.01 | 43 | 1013.1 |
| 20260506144207 | 57 | 107 | 0.9 | 3.5 | 0.00 | 0.01 | 0.01 | 43 | 1013.2 |
| 20260506143704 | 55 | 119 | 1.7 | 3.5 | 0.00 | 0.01 | 0.01 | 45 | 1012.9 |
| 20260506143202 | 56 | 73 | 2.6 | 3.5 | 0.00 | 0.01 | 0.01 | 41 | 1013.2 |
| 20260506142701 | 57 | 72 | 1.7 | 6.1 | 0.00 | 0.01 | 0.01 | 44 | 1013.2 |
| 20260506142158 | 57 | 71 | 3.5 | 4.3 | 0.00 | 0.01 | 0.01 | 46 | 1012.9 |
| 20260506141656 | 56 | 19 | 1.7 | 5.2 | 0.00 | 0.01 | 0.01 | 46 | 1012.7 |
| 20260506141154 | 55 | 6 | 3.5 | 5.2 | 0.00 | 0.01 | 0.01 | 47 | 1012.7 |
| 20260506140651 | 55 | 47 | 4.3 | 5.2 | 0.00 | 0.01 | 0.01 | 48 | 1012.9 |
| 20260506140148 | 54 | 27 | 4.3 | 4.3 | 0.00 | 0.01 | 0.01 | 50 | 1012.9 |
| 20260506135645 | 55 | 86 | 3.5 | 5.2 | 0.00 | 0.01 | 0.01 | 47 | 1012.4 |
| 20260506135141 | 55 | 112 | 1.7 | 3.5 | 0.00 | 0.01 | 0.01 | 51 | 1012.7 |
| 20260506134638 | 55 | 75 | 1.7 | 3.5 | 0.00 | 0.01 | 0.01 | 51 | 1012.7 |
| 20260506134133 | 55 | 48 | 1.7 | 3.5 | 0.00 | 0.01 | 0.01 | 53 | 1012.6 |
| 20260506133631 | 54 | 43 | 3.5 | 3.5 | 0.00 | 0.01 | 0.01 | 53 | 1012.9 |
| 20260506133128 | 53 | 87 | 1.7 | 3.5 | 0.00 | 0.01 | 0.01 | 51 | 1012.7 |
| 20260506132625 | 54 | 66 | 1.7 | 4.3 | 0.00 | 0.01 | 0.01 | 51 | 1012.6 |
| 20260506132122 | 54 | 88 | 1.7 | 3.5 | 0.00 | 0.01 | 0.01 | 56 | 1012.7 |
| 20260506131620 | 53 | 58 | 2.6 | 4.3 | 0.00 | 0.01 | 0.01 | 56 | 1012.6 |
| 20260506131116 | 53 | 110 | 2.6 | 3.5 | 0.00 | 0.01 | 0.01 | 59 | 1012.5 |
| 20260506130613 | 53 | 91 | 1.7 | 3.5 | 0.00 | 0.01 | 0.01 | 57 | 1012.5 |
| 20260506130110 | 53 | 42 | 1.7 | 4.3 | 0.00 | 0.01 | 0.01 | 57 | 1012.3 |
| 20260506125608 | 52 | 117 | 2.6 | 2.6 | 0.00 | 0.01 | 0.01 | 61 | 1012.3 |
| 20260506125106 | 50 | 98 | 0.9 | 2.6 | 0.00 | 0.01 | 0.01 | 67 | 1012.0 |
| 20260506124603 | 49 | 75 | 2.6 | 2.6 | 0.00 | 0.01 | 0.01 | 71 | 1012.4 |
| 20260506124101 | 48 | 94 | 1.7 | 2.6 | 0.00 | 0.01 | 0.01 | 75 | 1012.1 |
| 20260506123558 | 48 | 99 | 2.6 | 3.5 | 0.00 | 0.01 | 0.01 | 72 | 1011.9 |
| 20260506123057 | 48 | 45 | 3.5 | 3.5 | 0.00 | 0.01 | 0.01 | 71 | 1011.9 |
| 20260506122553 | 48 | 115 | 0.9 | 2.6 | 0.00 | 0.01 | 0.01 | 73 | 1012.0 |
| 20260506122051 | 48 | 59 | 3.5 | 3.5 | 0.00 | 0.01 | 0.01 | 76 | 1012.1 |
| 20260506121548 | 47 | 71 | 1.7 | 2.6 | 0.00 | 0.01 | 0.01 | 77 | 1011.9 |
| 20260506121044 | 47 | 71 | 0.9 | 3.5 | 0.00 | 0.01 | 0.01 | 79 | 1012.0 |
| 20260506120543 | 46 | 103 | 1.7 | 3.5 | 0.00 | 0.01 | 0.01 | 83 | 1011.9 |
| 20260506120040 | 46 | 86 | 1.7 | 2.6 | 0.00 | 0.01 | 0.01 | 83 | 1012.1 |
| 20260506115538 | 46 | 98 | 1.7 | 3.5 | 0.00 | 0.01 | 0.01 | 86 | 1011.8 |
| 20260506115036 | 46 | 59 | 1.7 | 3.5 | 0.00 | 0.01 | 0.01 | 90 | 1011.4 |
| 20260506114533 | 45 | 98 | 1.7 | 2.6 | 0.00 | 0.01 | 0.01 | 95 | 1011.5 |
| 20260506114031 | 45 | 105 | 1.7 | 2.6 | 0.00 | 0.01 | 0.01 | 96 | 1011.6 |
| 20260506113529 | 44 | 96 | 1.7 | 2.6 | 0.00 | 0.01 | 0.01 | 96 | 1011.3 |
| 20260506113026 | 44 | 97 | 2.6 | 2.6 | 0.00 | 0.01 | 0.01 | 96 | 1011.5 |
| 20260506112522 | 43 | 85 | 1.7 | 1.7 | 0.00 | 0.01 | 0.01 | 96 | 1011.3 |
| 20260506112020 | 43 | 98 | 1.7 | 2.6 | 0.00 | 0.01 | 0.01 | 96 | 1011.1 |
| 20260506111518 | 44 | 107 | 1.7 | 2.6 | 0.00 | 0.01 | 0.01 | 96 | 1011.1 |
| 20260506111015 | 44 | 104 | 1.7 | 2.6 | 0.00 | 0.01 | 0.01 | 96 | 1010.6 |
| 20260506110512 | 44 | 105 | 1.7 | 2.6 | 0.00 | 0.01 | 0.01 | 96 | 1010.9 |
| 20260506110009 | 44 | 107 | 2.6 | 3.5 | 0.00 | 0.01 | 0.01 | 96 | 1010.8 |
| 20260506105505 | 45 | 117 | 1.7 | 1.7 | 0.00 | 0.01 | 0.01 | 96 | 1010.6 |
| 20260506105003 | 45 | 75 | 1.7 | 1.7 | 0.00 | 0.01 | 0.01 | 96 | 1010.5 |
| 20260506104501 | 45 | 85 | 1.7 | 1.7 | 0.00 | 0.01 | 0.01 | 96 | 1010.6 |
| 20260506103958 | 45 | 77 | 1.7 | 2.6 | 0.00 | 0.01 | 0.01 | 96 | 1010.6 |
| 20260506103455 | 45 | 112 | 1.7 | 1.7 | 0.00 | 0.01 | 0.01 | 96 | 1010.4 |
| 20260506102952 | 45 | 111 | 1.7 | 3.5 | 0.00 | 0.01 | 0.01 | 96 | 1010.2 |
| 20260506102450 | 45 | 101 | 1.7 | 2.6 | 0.00 | 0.01 | 0.01 | 96 | 1010.0 |
| 20260506101947 | 45 | 74 | 0.9 | 2.6 | 0.00 | 0.01 | 0.01 | 96 | 1010.1 |
| 20260506101444 | 45 | 95 | 1.7 | 2.6 | 0.00 | 0.01 | 0.01 | 96 | 1010.5 |
| 20260506100941 | 45 | 95 | 1.7 | 2.6 | 0.00 | 0.01 | 0.01 | 96 | 1010.2 |
| 20260506100439 | 45 | 122 | 2.6 | 2.6 | 0.00 | 0.01 | 0.01 | 96 | 1009.9 |
| 20260506095937 | 45 | 156 | 0.0 | 3.5 | 0.00 | 0.01 | 0.01 | 96 | 1009.8 |
| 20260506095435 | 45 | 107 | 1.7 | 2.6 | 0.00 | 0.01 | 0.01 | 96 | 1009.9 |
| 20260506094931 | 45 | 101 | 1.7 | 2.6 | 0.00 | 0.01 | 0.01 | 96 | 1010.0 |
| 20260506094430 | 45 | 97 | 1.7 | 2.6 | 0.00 | 0.01 | 0.01 | 96 | 1010.1 |
| 20260506093927 | 45 | 105 | 1.7 | 2.6 | 0.00 | 0.01 | 0.01 | 96 | 1010.1 |